{"data":{"norad_id":45465,"intl_designator":"2020-022B","name":"AEHF-6 (USA 298)","alt_names":[],"object_type":"PAYLOAD","status":"ACTIVE","operator":null,"country":"US","launch_date":"2020-03-26","launch_site_code":"AFETR","launch_vehicle":null,"mission":null,"orbit_class":"UNKNOWN","rcs_meters":null,"size_class":null,"mass_kg":null,"dimensions":null,"purposes":["comms"],"wikipedia_slug":null,"has_3d_model":false,"image_url":null,"decayed_at":null,"tle_current":{"epoch":"2026-09-19T21:02:57.856128Z","epoch_age_seconds":79653,"freshness":"FRESH","line1":"1 45465U 20022B   26262.87705852 -.00000304  00000+0  00000+0 0  9996","line2":"2 45465   2.3531 302.5745 0042217  10.7165 138.9281  1.00268356 23965","mean_motion":1.00268356,"eccentricity":0.0042217,"inclination_deg":2.3531,"raan_deg":302.5745,"arg_perigee_deg":10.7165,"mean_anomaly_deg":138.9281,"bstar":0,"rev_number":2396,"period_min":1436.1460159973,"perigee_km":35609.545354519,"apogee_km":35965.567169005,"semimajor_km":42165.693261762,"source":"CELESTRAK","updated_at":"2026-09-20T09:00:35.293531Z"}}}